"2010-08-11 00:00:00",60781,6.343,161,3.612,0.523,22.46,110.4414,26.03,26.89,17.71,0,111.3,13.09,26.87,123.0
"2010-08-11 00:00:30",60782,5.963,160.7,3.008,0.168,22.5,110.4383,26.02,26.91,17.73,0,111.3,13.09,26.86,122.7
"2010-08-11 00:01:00",60783,6.052,155.6,4.601,0.211,22.65,110.4377,26.02,26.89,17.56,0,111.3,13.09,26.86,117.6
"2010-08-11 00:01:30",60784,5.952,146.9,2.594,0.373,22.7,110.4377,26.02,26.89,17.43,0,111.3,13.09,26.86,108.9
"2010-08-11 00:02:00",60785,6.031,148,3.003,0.404,22.8,110.4363,26.02,26.88,17.39,0,111.3,13.09,26.86,110.0
"2010-08-11 00:02:30",60786,6.454,144.6,4.972,0.44,22.87,110.4282,25.99,26.88,17.55,0,111.3,13.09,26.84,106.6
"2010-08-11 00:03:00",60787,6.538,141.9,3.798,0.551,22.89,110.4136,25.96,26.87,17.63,0,111.3,13.09,26.80,103.9
"2010-08-11 00:03:30",60788,7.258,149.4,9.17,0.396,22.94,110.4113,25.95,26.87,17.58,0,111.3,13.09,26.79,111.4
"2010-08-11 00:04:00",60789,6.776,150.1,3.27,0.324,22.96,110.4063,25.94,26.86,17.53,0,111.3,13.1,26.78,112.1
"2010-08-11 00:04:30",60790,5.489,158,3.983,0.247,22.99,110.404,25.93,26.86,17.65,0,111.3,13.1,26.78,120.0
"2010-08-11 00:05:00",60791,6.436,157.7,3.408,0.856,23.03,110.404,25.93,26.85,17.7,0,111.3,13.1,26.78,119.7
"2010-08-11 00:05:30",60792,6.837,151.7,4.152,0.263,23.02,110.404,25.93,26.84,17.75,0,111.3,13.1,26.78,113.7
"2010-08-11 00:06:00",60793,6.233,148.1,4.455,0.453,23.04,110.404,25.93,26.85,17.86,0,111.3,13.1,26.78,110.1
"2010-08-11 00:06:30",60794,6.418,145.5,1.633,0.363,23.02,110.404,25.93,26.84,17.76,0,111.3,13.1,26.78,107.5
"2010-08-11 00:07:00",60795,5.812,144.6,1.867,0.408,23.04,110.404,25.93,26.84,18.05,0,111.3,13.1,26.78,106.6
"2010-08-11 00:07:30",60796,5.266,146.5,4.329,0.194,22.95,110.405,25.94,26.84,17.65,0,111.3,13.1,26.78,108.5
"2010-08-11 00:08:00",60797,5.869,142.3,2.672,0.365,22.94,110.4081,25.94,26.83,17.49,0,111.3,13.1,26.79,104.3
"2010-08-11 00:08:30",60798,5.52,137.6,2.423,0.169,22.94,110.4127,25.96,26.84,17.35,0,111.3,13.1,26.80,99.6
"2010-08-11 00:09:00",60799,5.486,142.1,5.584,0.203,22.96,110.4159,25.96,26.84,17.36,0,111.3,13.1,26.81,104.1
"2010-08-11 00:09:30",60800,5.804,144,3.417,0.507,22.95,110.4163,25.96,26.83,17.44,0,111.3,13.1,26.81,106.0
"2010-08-11 00:10:00",60801,7.071,150.1,1.887,0.29,23.03,110.4162,25.96,26.82,17.55,0,111.3,13.1,26.81,112.1
"2010-08-11 00:10:30",60802,6.682,145.7,4.351,0.234,22.96,110.424,25.98,26.84,17.45,0,111.3,13.09,26.83,107.7
"2010-08-11 00:11:00",60803,6.176,156.5,8.43,0.58,23.02,110.4273,25.99,26.82,17.56,0,111.3,13.09,26.84,118.5
"2010-08-11 00:11:30",60804,5.503,178.4,3.196,0.553,23.01,110.4307,26,26.84,17.7,0,111.3,13.09,26.84,140.4
"2010-08-11 00:12:00",60805,4.977,166.1,11.93,0.382,22.99,110.4316,26,26.84,17.72,0,111.3,13.09,26.85,128.1
"2010-08-11 00:12:30",60806,5.001,155.9,5.236,0.585,23.04,110.4319,26,26.85,17.67,0,111.3,13.09,26.85,117.9
"2010-08-11 00:13:00",60807,4.761,153.8,4.342,0.229,22.97,110.4319,26,26.84,17.62,0,111.3,13.09,26.85,115.8
"2010-08-11 00:13:30",60808,4.803,148.4,2.56,0.532,22.94,110.4338,26.01,26.85,17.51,0,111.2,13.09,26.85,110.4
"2010-08-11 00:14:00",60809,5.32,148.8,2.65,0.314,22.97,110.4372,26.02,26.84,17.56,0,111.2,13.1,26.86,110.8
"2010-08-11 00:14:30",60810,5.94,145.6,5.302,0.316,22.96,110.4394,26.02,26.84,17.46,0,111.2,13.09,26.87,107.6
"2010-08-11 00:15:00",60811,5.76,146.9,3.938,0.345,22.98,110.4391,26.02,26.84,17.47,0,111.2,13.09,26.87,108.9
"2010-08-11 00:15:30",60812,5.403,148.9,3.574,0.345,22.95,110.4404,26.03,26.86,17.46,0,111.2,13.1,26.87,110.9
"2010-08-11 00:16:00",60813,4.88,147.5,2.583,0.267,22.96,110.4384,26.02,26.86,17.51,0,111.2,13.1,26.86,109.5
"2010-08-11 00:16:30",60814,4.483,148.7,1.973,0.249,22.92,110.4359,26.01,26.85,17.55,0,111.2,13.1,26.86,110.7
"2010-08-11 00:17:00",60815,4.256,142,1.467,0.073,22.97,110.4353,26.01,26.85,17.56,0,111.2,13.1,26.86,104.0
"2010-08-11 00:17:30",60816,4.287,140.9,3.261,0.258,22.99,110.4356,26.01,26.86,17.54,0,111.2,13.1,26.86,102.9
"2010-08-11 00:18:00",60817,5.713,145.8,3.51,0.736,23.02,110.4356,26.01,26.86,17.57,0,111.2,13.1,26.86,107.8
"2010-08-11 00:18:30",60818,6.433,151.9,2.824,0.255,23.08,110.4314,26,26.87,17.56,0,111.2,13.1,26.85,113.9
"2010-08-11 00:19:00",60819,5.925,156,5.305,0.336,23.09,110.4283,26,26.85,17.65,0,111.2,13.1,26.84,118.0
"2010-08-11 00:19:30",60820,5.658,155,3.548,0.278,23.08,110.4266,25.99,26.86,17.47,0,111.2,13.1,26.83,117.0
"2010-08-11 00:20:00",60821,5.595,148,7.047,0.312,23.03,110.4238,25.98,26.87,17.4,0,111.2,13.1,26.83,110.0
"2010-08-11 00:20:30",60822,4.957,145.8,3.185,0.253,22.99,110.4227,25.98,26.86,17.45,0,111.2,13.1,26.82,107.8
"2010-08-11 00:21:00",60823,5.194,154.2,4.646,0.314,23.01,110.4221,25.98,26.88,17.43,0,111.2,13.11,26.82,116.2
"2010-08-11 00:21:30",60824,4.822,153.2,3.522,0.304,22.95,110.4207,25.98,26.86,17.46,0,111.2,13.11,26.82,115.2
"2010-08-11 00:22:00",60825,4.862,152.8,3.113,0.177,22.75,110.4204,25.98,26.87,17.48,0,111.2,13.11,26.82,114.8
"2010-08-11 00:22:30",60826,5.814,150.1,5.141,0.405,22.59,110.4233,25.98,26.88,17.6,0,111.2,13.11,26.82,112.1
"2010-08-11 00:23:00",60827,6.363,146.7,2.511,0.313,22.51,110.4258,25.99,26.88,17.73,0,111.2,13.11,26.83,108.7
"2010-08-11 00:23:30",60828,6.099,143.3,3.656,0.156,22.54,110.4331,26.01,26.89,17.8,0,111.2,13.11,26.85,105.3
"2010-08-11 00:24:00",60829,5.683,140.3,5.97,0.238,22.51,110.4342,26.01,26.89,17.53,0,111.2,13.11,26.85,102.3
"2010-08-11 00:24:30",60830,5.255,147.8,2.178,0.297,22.49,110.4389,26.02,26.89,17.75,0,111.2,13.11,26.87,109.8
"2010-08-11 00:25:00",60831,5.524,149.3,2.88,0.274,22.48,110.4394,26.02,26.89,17.64,0,111.2,13.11,26.87,111.3
"2010-08-11 00:25:30",60832,5.819,141.9,3.656,0.228,22.41,110.4414,26.03,26.89,18.04,0,111.2,13.11,26.87,103.9
"2010-08-11 00:26:00",60833,6.301,154.2,7.751,0.426,22.47,110.4428,26.03,26.89,17.88,0,111.2,13.11,26.88,116.2
"2010-08-11 00:26:30",60834,5.746,168.7,1.777,0.202,22.53,110.4434,26.03,26.9,17.42,0,111.2,13.11,26.88,130.7
"2010-08-11 00:27:00",60835,5.503,168.6,1.827,0.344,22.52,110.4449,26.04,26.92,17.38,0,111.2,13.11,26.88,130.6
"2010-08-11 00:27:30",60836,5.362,169.8,3.461,0.162,22.46,110.4428,26.03,26.92,17.36,0,111.2,13.11,26.88,131.8
"2010-08-11 00:28:00",60837,5.359,167.4,3.116,0.297,22.46,110.4479,26.05,26.94,17.33,0,111.2,13.11,26.89,129.4
"2010-08-11 00:28:30",60838,5.319,165,3.949,0.185,22.49,110.4569,26.07,26.93,17.31,0,111.2,13.11,26.91,127.0
"2010-08-11 00:29:00",60839,5.455,160.9,1.761,0.211,22.42,110.4712,26.11,26.94,17.31,0,111.2,13.1,26.95,122.9
"2010-08-11 00:29:30",60840,5.09,158.4,2.76,0.295,22.37,110.4768,26.12,26.96,17.28,0,111.2,13.1,26.96,120.4
"2010-08-11 00:30:00",60841,4.908,164.7,1.796,0.167,22.36,110.4768,26.12,26.97,17.27,0,111.2,13.11,26.96,126.7
"2010-08-11 00:30:30",60842,5.045,160.4,2.07,0.217,22.3,110.4771,26.12,26.98,17.22,0,111.2,13.1,26.96,122.4
"2010-08-11 00:31:00",60843,5.115,160.7,1.776,0.137,22.26,110.4765,26.12,26.98,17.17,0,111.2,13.1,26.96,122.7
"2010-08-11 00:31:30",60844,5.174,158.1,3.993,0.444,22.25,110.4771,26.12,26.98,17.18,0,111.2,13.1,26.96,120.1
"2010-08-11 00:32:00",60845,5.519,155.9,2.007,0.283,22.26,110.4768,26.12,27,17.18,0,111.2,13.1,26.96,117.9
"2010-08-11 00:32:30",60846,4.703,153.3,1.897,0.23,22.24,110.4758,26.12,26.98,17.27,0,111.2,13.1,26.96,115.3
"2010-08-11 00:33:00",60847,4.886,150.4,2.726,0.154,22.24,110.4777,26.12,27,17.41,0,111.2,13.11,26.97,112.4
"2010-08-11 00:33:30",60848,5.385,154.6,3.066,0.178,22.25,110.4758,26.12,27,17.55,0,111.2,13.11,26.96,116.6
"2010-08-11 00:34:00",60849,5.376,157.3,2.658,0.248,22.27,110.4752,26.12,27,17.48,0,111.2,13.11,26.96,119.3
"2010-08-11 00:34:30",60850,5.608,147,2.863,0.329,22.26,110.4749,26.11,26.98,17.52,0,111.2,13.11,26.96,109.0
"2010-08-11 00:35:00",60851,5.374,151.9,2.846,0.256,22.29,110.4735,26.11,26.98,17.37,0,111.2,13.11,26.95,113.9
"2010-08-11 00:35:30",60852,5.066,153.9,2.934,0.136,22.34,110.4741,26.11,26.98,17.14,0,111.2,13.11,26.96,115.9
"2010-08-11 00:36:00",60853,5.248,152.6,3.03,0.114,22.32,110.4743,26.11,26.98,17.11,0,111.2,13.11,26.96,114.6
"2010-08-11 00:36:30",60854,5.56,151.3,3.565,0.312,22.35,110.4729,26.11,26.97,17.2,0,111.2,13.11,26.95,113.3
"2010-08-11 00:37:00",60855,5.807,152.9,2.648,0.166,22.49,110.4718,26.11,26.97,17.19,0,111.2,13.11,26.95,114.9
"2010-08-11 00:37:30",60856,5.758,150.6,2.878,0.144,22.61,110.4687,26.1,26.98,17.15,0,111.2,13.11,26.94,112.6
"2010-08-11 00:38:00",60857,5.603,151.6,2.193,0.307,22.72,110.4651,26.09,26.97,17.12,0,111.2,13.11,26.93,113.6
"2010-08-11 00:38:30",60858,5.774,149.3,3.702,0.271,22.75,110.4572,26.07,26.97,17.21,0,111.2,13.11,26.91,111.3
"2010-08-11 00:39:00",60859,5.778,144.2,2.684,0.14,22.69,110.4505,26.05,26.97,17.38,0,111.2,13.11,26.90,106.2
"2010-08-11 00:39:30",60860,5.896,146.1,3.069,0.2,22.65,110.4491,26.05,26.95,17.38,0,111.2,13.11,26.89,108.1
"2010-08-11 00:40:00",60861,6.43,155.7,3.768,0.295,22.82,110.4466,26.04,26.96,17.21,0,111.2,13.11,26.88,117.7
"2010-08-11 00:40:30",60862,5.481,155.5,3.81,0.326,22.88,110.4454,26.04,26.96,17.1,0,111.2,13.11,26.88,117.5
"2010-08-11 00:41:00",60863,5.591,144.2,4.836,0.432,22.87,110.4415,26.03,26.94,17.06,0,111.2,13.11,26.87,106.2
"2010-08-11 00:41:30",60864,5.671,142.6,4.738,0.237,22.92,110.4412,26.03,26.95,17.05,0,111.2,13.11,26.87,104.6
"2010-08-11 00:42:00",60865,5.777,150.1,3.326,0.235,23.01,110.4412,26.03,26.94,17.04,0,111.2,13.11,26.87,112.1
"2010-08-11 00:42:30",60866,5.754,140.1,1.5,0.165,22.98,110.4418,26.03,26.92,17.06,0,111.2,13.11,26.87,102.1
"2010-08-11 00:43:00",60867,5.607,136,1.273,0.18,22.98,110.4412,26.03,26.93,16.96,0,111.2,13.11,26.87,98.0
"2010-08-11 00:43:30",60868,5.265,140.9,2.116,0.187,23.01,110.4418,26.03,26.92,17.01,0,111.2,13.11,26.87,102.9
"2010-08-11 00:44:00",60869,5.121,143.3,1.197,0.101,23.02,110.4428,26.03,26.92,17.06,0,111.2,13.11,26.88,105.3
"2010-08-11 00:44:30",60870,5.361,142.7,2.295,0.177,23.01,110.4424,26.03,26.91,17.11,0,111.2,13.11,26.87,104.7
"2010-08-11 00:45:00",60871,5.362,141.6,1.364,0.231,22.98,110.4299,26,26.9,17.13,0,111.2,13.11,26.84,103.6
"2010-08-11 00:45:30",60872,6.042,138.4,1.538,0.191,22.99,110.4206,25.98,26.91,17.35,0,111.2,13.1,26.82,100.4
"2010-08-11 00:46:00",60873,5.519,140.7,3.395,0.201,23,110.414,25.96,26.9,17.33,0,111.2,13.1,26.80,102.7
"2010-08-11 00:46:30",60874,5.914,142.3,5.523,0.168,23,110.4125,25.95,26.89,17.45,0,111.2,13.1,26.80,104.3
"2010-08-11 00:47:00",60875,5.796,151.6,2.671,0.231,23.07,110.4156,25.96,26.88,17.27,0,111.2,13.1,26.81,113.6
"2010-08-11 00:47:30",60876,5.824,158.7,2.411,0.168,23.06,110.4178,25.97,26.87,17.27,0,111.2,13.1,26.81,120.7
"2010-08-11 00:48:00",60877,5.093,157.5,3.929,0.195,22.95,110.4212,25.98,26.88,17.29,0,111.2,13.1,26.82,119.5
"2010-08-11 00:48:30",60878,4.624,159.9,1.882,0.145,22.78,110.4238,25.98,26.88,17.29,0,111.2,13.1,26.83,121.9
"2010-08-11 00:49:00",60879,4.29,161.6,2.256,0.131,22.68,110.429,26,26.89,17.3,0,111.2,13.1,26.84,123.6
"2010-08-11 00:49:30",60880,3.774,160.7,1.91,0.206,22.58,110.4366,26.02,26.9,17.27,0,111.2,13.1,26.86,122.7
"2010-08-11 00:50:00",60881,4.135,151.4,4.819,0.267,22.52,110.4499,26.05,26.91,17.27,0,111.2,13.11,26.89,113.4
"2010-08-11 00:50:30",60882,4.886,147.5,1.89,0.266,22.5,110.4541,26.06,26.91,17.23,0,111.2,13.11,26.90,109.5
"2010-08-11 00:51:00",60883,5.039,147.5,1.574,0.129,22.48,110.4564,26.07,26.92,17.16,0,111.2,13.11,26.91,109.5
"2010-08-11 00:51:30",60884,5.11,146.4,1.784,0.112,22.45,110.4613,26.08,26.89,17.1,0,111.2,13.11,26.92,108.4
"2010-08-11 00:52:00",60885,5.116,148.2,1.17,0.11,22.47,110.464,26.09,26.91,17.11,0,111.2,13.11,26.93,110.2
"2010-08-11 00:52:30",60886,4.852,150.6,2.057,0.137,22.48,110.4649,26.09,26.91,17.08,0,111.2,13.11,26.93,112.6
"2010-08-11 00:53:00",60887,4.608,152.8,2.858,0.15,22.45,110.4654,26.09,26.92,17.18,0,111.2,13.11,26.93,114.8
"2010-08-11 00:53:30",60888,4.119,152.8,2.439,0.25,22.45,110.4654,26.09,26.92,17.22,0,111.2,13.11,26.93,114.8
"2010-08-11 00:54:00",60889,4.508,151.3,2.312,0.178,22.54,110.4651,26.09,26.93,17.17,0,111.2,13.11,26.93,113.3
"2010-08-11 00:54:30",60890,4.853,145.4,1.715,0.142,22.7,110.4667,26.09,26.94,17.11,0,111.2,13.11,26.94,107.4
"2010-08-11 00:55:00",60891,5.263,145.7,1.665,0.175,22.85,110.467,26.09,26.93,17.02,0,111.2,13.11,26.94,107.7
"2010-08-11 00:55:30",60892,5.24,144.3,1.117,0.125,22.88,110.4651,26.09,26.93,17.05,0,111.2,13.11,26.93,106.3
"2010-08-11 00:56:00",60893,5.548,147.3,1.844,0.314,22.94,110.4667,26.09,26.93,17.09,0,111.2,13.11,26.94,109.3
"2010-08-11 00:56:30",60894,5.614,152.8,4.944,0.216,23.03,110.4597,26.08,26.91,17.09,0,111.2,13.11,26.92,114.8
"2010-08-11 00:57:00",60895,5.504,153.6,3.534,0.154,23.07,110.455,26.06,26.92,17.05,0,111.2,13.11,26.91,115.6
"2010-08-11 00:57:30",60896,5.409,149.2,1.763,0.136,23.02,110.4517,26.06,26.92,17.17,0,111.2,13.11,26.90,111.2
"2010-08-11 00:58:00",60897,5.561,148.5,2.565,0.321,23.07,110.4432,26.03,26.91,17.16,0,111.2,13.11,26.88,110.5
"2010-08-11 00:58:30",60898,5.662,143.7,1.735,0.26,23.03,110.4425,26.03,26.91,17.07,0,111.2,13.11,26.87,105.7
"2010-08-11 00:59:00",60899,6.01,147.2,2.164,0.128,23.08,110.4371,26.02,26.91,17.02,0,111.2,13.11,26.86,109.2
"2010-08-11 00:59:30",60900,6.048,146.7,1.752,0.145,23.1,110.4357,26.01,26.89,16.96,0,111.2,13.11,26.86,108.7
"2010-08-11 01:00:00",60901,5.749,144.1,2.429,0.138,23.04,110.4354,26.01,26.89,16.94,0,111.2,13.11,26.86,106.1
"2010-08-11 01:00:30",60902,5.663,146.7,2.306,0.173,23.07,110.4354,26.01,26.89,16.92,0,111.2,13.11,26.86,108.7
"2010-08-11 01:01:00",60903,5.738,143.4,1.979,0.057,23.06,110.4364,26.02,26.89,16.99,0,111.2,13.11,26.86,105.4
"2010-08-11 01:01:30",60904,6.041,143.5,1.478,0.251,23.08,110.4367,26.02,26.89,16.97,0,111.2,13.12,26.86,105.5
"2010-08-11 01:02:00",60905,6.457,143.4,0.663,0.092,23.08,110.4373,26.02,26.89,16.61,0,111.2,13.11,26.86,105.4
"2010-08-11 01:02:30",60906,6.225,142.5,0.892,0.142,23.08,110.4383,26.02,26.89,16.53,0,111.2,13.11,26.86,104.5
"2010-08-11 01:03:00",60907,6.004,143.4,1.424,0.087,23.14,110.4384,26.02,26.88,16.51,0,111.2,13.11,26.86,105.4
"2010-08-11 01:03:30",60908,6.232,144.4,2.141,0.382,23.11,110.4338,26.01,26.88,16.5,0,111.2,13.11,26.85,106.4
"2010-08-11 01:04:00",60909,6.687,145.4,0.842,0.247,23.15,110.4312,26,26.87,16.63,0,111.2,13.11,26.85,107.4
"2010-08-11 01:04:30",60910,6.055,145.7,1.628,0.087,23.15,110.4328,26.01,26.89,16.68,0,111.2,13.11,26.85,107.7
"2010-08-11 01:05:00",60911,5.875,145.5,1.697,0.174,23.13,110.434,26.01,26.87,16.71,0,111.2,13.11,26.85,107.5
"2010-08-11 01:05:30",60912,6.266,147.2,1.221,0.073,23.14,110.4313,26,26.88,16.7,0,111.2,13.11,26.85,109.2
"2010-08-11 01:06:00",60913,6.246,146.4,1.817,0.145,23.13,110.4245,25.99,26.87,16.71,0,111.2,13.11,26.83,108.4
"2010-08-11 01:06:30",60914,5.611,143.4,0.859,0.143,23.12,110.4226,25.98,26.87,16.71,0,111.2,13.11,26.82,105.4
"2010-08-11 01:07:00",60915,5.561,147.9,2.062,0.456,23.15,110.4217,25.98,26.88,16.69,0,111.2,13.11,26.82,109.9
"2010-08-11 01:07:30",60916,5.856,150,2.188,0.198,23.15,110.42,25.97,26.87,16.85,0,111.2,13.11,26.82,112.0
"2010-08-11 01:08:00",60917,5.946,154.7,6.802,0.458,23.16,110.4198,25.97,26.88,16.9,0,111.2,13.12,26.82,116.7
"2010-08-11 01:08:30",60918,5.834,164.1,5.342,0.33,23.24,110.4198,25.97,26.88,17.01,0,111.2,13.12,26.82,126.1
"2010-08-11 01:09:00",60919,5.229,155.7,5.533,0.322,23.16,110.4209,25.98,26.88,17,0,111.2,13.12,26.82,117.7
"2010-08-11 01:09:30",60920,5.827,149.9,1.956,0.276,23.16,110.4209,25.98,26.88,16.84,0,111.2,13.12,26.82,111.9
"2010-08-11 01:10:00",60921,6.278,149.2,1.301,0.225,23.04,110.4217,25.98,26.87,16.73,0,111.2,13.12,26.82,111.2
"2010-08-11 01:10:30",60922,6.142,147.9,0.714,0.046,22.91,110.4203,25.97,26.87,16.68,0,111.2,13.12,26.82,109.9
"2010-08-11 01:11:00",60923,5.991,144.8,1.266,0.113,22.79,110.422,25.98,26.87,16.65,0,111.2,13.12,26.82,106.8
"2010-08-11 01:11:30",60924,5.983,148.4,1.656,0.07,22.76,110.4265,25.99,26.88,16.75,0,111.2,13.12,26.83,110.4
"2010-08-11 01:12:00",60925,6.037,149.9,2.178,0.102,22.74,110.4341,26.01,26.88,16.82,0,111.2,13.12,26.85,111.9
"2010-08-11 01:12:30",60926,6.042,149,1.43,0.131,22.68,110.4419,26.03,26.88,16.8,0,111.2,13.12,26.87,111.0
"2010-08-11 01:13:00",60927,6.023,154.8,3.619,0.184,22.72,110.4445,26.04,26.89,16.83,0,111.2,13.12,26.88,116.8
"2010-08-11 01:13:30",60928,6.011,156.2,1.875,0.372,22.7,110.4447,26.04,26.9,16.93,0,111.2,13.12,26.88,118.2
"2010-08-11 01:14:00",60929,5.887,155.8,1.102,0.228,22.68,110.4447,26.04,26.9,17.06,0,111.2,13.12,26.88,117.8
"2010-08-11 01:14:30",60930,5.7,153.9,1.758,0.13,22.67,110.4447,26.04,26.91,17.04,0,111.2,13.12,26.88,115.9
"2010-08-11 01:15:00",60931,5.808,154.5,1.932,0.168,22.65,110.4447,26.04,26.91,16.94,0,111.2,13.12,26.88,116.5
"2010-08-11 01:15:30",60932,5.755,151.8,1.767,0.118,22.61,110.4447,26.04,26.92,16.7,0,111.2,13.13,26.88,113.8
"2010-08-11 01:16:00",60933,5.724,152.1,2.301,0.151,22.65,110.4447,26.04,26.92,16.82,0,111.2,13.13,26.88,114.1
"2010-08-11 01:16:30",60934,5.558,145.8,1.335,0.067,22.56,110.4461,26.04,26.93,16.55,0,111.2,13.13,26.88,107.8
"2010-08-11 01:17:00",60935,5.292,147,1.16,0.171,22.57,110.4467,26.04,26.93,16.48,0,111.2,13.13,26.89,109.0
"2010-08-11 01:17:30",60936,5.098,148.9,1.188,0.091,22.6,110.4478,26.05,26.93,16.5,0,111.2,13.13,26.89,110.9
"2010-08-11 01:18:00",60937,5.048,146.4,1.2,0.091,22.52,110.4461,26.04,26.94,16.49,0,111.2,13.13,26.88,108.4
"2010-08-11 01:18:30",60938,5.146,144.3,2.005,0.14,22.55,110.4447,26.04,26.95,16.46,0,111.2,13.13,26.88,106.3
"2010-08-11 01:19:00",60939,5.215,147.6,4.085,0.151,22.61,110.4447,26.04,26.95,16.64,0,111.2,13.12,26.88,109.6
"2010-08-11 01:19:30",60940,5.186,157.3,2.454,0.183,22.69,110.4453,26.04,26.95,17.02,0,111.2,13.11,26.88,119.3
"2010-08-11 01:20:00",60941,5.018,149.3,3.125,0.163,22.61,110.4467,26.04,26.95,16.79,0,111.2,13.12,26.89,111.3
"2010-08-11 01:20:30",60942,5.55,155.5,2.195,0.299,22.7,110.4504,26.05,26.94,17.02,0,111.2,13.11,26.89,117.5
"2010-08-11 01:21:00",60943,5.556,153.5,2.54,0.191,22.67,110.4532,26.06,26.94,17.02,0,111.2,13.11,26.90,115.5
"2010-08-11 01:21:30",60944,5.374,147.4,0.95,0.107,22.65,110.4532,26.06,26.95,16.87,0,111.2,13.11,26.90,109.4
"2010-08-11 01:22:00",60945,5.345,153,1.968,0.197,22.73,110.4537,26.06,26.96,17.12,0,111.2,13.11,26.90,115.0
"2010-08-11 01:22:30",60946,5.398,157.5,4.254,0.227,22.8,110.4647,26.09,26.96,17.2,0,111.2,13.11,26.93,119.5
"2010-08-11 01:23:00",60947,5.188,162.7,2.374,0.246,22.83,110.4762,26.12,26.98,17.2,0,111.2,13.11,26.96,124.7
"2010-08-11 01:23:30",60948,5.041,160.7,2.537,0.157,22.76,110.4784,26.12,26.97,17.08,0,111.2,13.11,26.97,122.7
"2010-08-11 01:24:00",60949,5.15,150.3,4.19,0.236,22.77,110.4784,26.12,26.99,17.06,0,111.2,13.11,26.97,112.3
"2010-08-11 01:24:30",60950,5.134,151.3,4.642,0.297,22.73,110.4784,26.12,26.99,17,0,111.2,13.12,26.97,113.3
"2010-08-11 01:25:00",60951,4.963,148.4,1.832,0.168,22.7,110.4784,26.12,26.98,16.86,0,111.2,13.12,26.97,110.4
"2010-08-11 01:25:30",60952,5.302,152,1.813,0.245,22.72,110.4779,26.12,26.99,16.85,0,111.2,13.12,26.97,114.0
"2010-08-11 01:26:00",60953,5.615,152.5,2.96,0.232,22.75,110.4765,26.12,26.98,16.94,0,111.2,13.12,26.96,114.5
"2010-08-11 01:26:30",60954,4.869,156.9,2.837,0.201,22.82,110.4728,26.11,26.98,17.03,0,111.2,13.12,26.95,118.9
"2010-08-11 01:27:00",60955,5.319,155,1.953,0.262,22.82,110.4745,26.11,26.98,17.03,0,111.2,13.12,26.96,117.0
"2010-08-11 01:27:30",60956,5.814,159.3,2.497,0.219,22.93,110.4734,26.11,26.97,17.1,0,111.2,13.12,26.95,121.3
"2010-08-11 01:28:00",60957,5.818,159.4,2.277,0.137,22.9,110.4723,26.11,26.98,17.07,0,111.2,13.13,26.95,121.4
"2010-08-11 01:28:30",60958,5.593,152.7,1.917,0.152,22.94,110.463,26.08,26.98,16.97,0,111.2,13.12,26.93,114.7
"2010-08-11 01:29:00",60959,5.715,154.9,1.38,0.105,23.02,110.4551,26.06,26.97,17.03,0,111.2,13.12,26.91,116.9
"2010-08-11 01:29:30",60960,5.737,155.3,2.774,0.153,23.09,110.4532,26.06,26.98,17.05,0,111.2,13.12,26.90,117.3
"2010-08-11 01:30:00",60961,5.875,155.1,1.549,0.22,23.16,110.4523,26.06,26.96,17.11,0,111.2,13.12,26.90,117.1
"2010-08-11 01:30:30",60962,5.5,156.2,3.031,0.122,23.18,110.4495,26.05,26.96,17.12,0,111.2,13.12,26.89,118.2
"2010-08-11 01:31:00",60963,5.832,154.5,2.534,0.135,23.07,110.4473,26.04,26.96,17.14,0,111.2,13.12,26.89,116.5
"2010-08-11 01:31:30",60964,6.011,156,3.752,0.161,23.04,110.4473,26.04,26.96,17.13,0,111.2,13.12,26.89,118.0
"2010-08-11 01:32:00",60965,5.967,159.4,1.64,0.218,23.05,110.4456,26.04,26.94,17.14,0,111.2,13.13,26.88,121.4
"2010-08-11 01:32:30",60966,5.691,157,1.694,0.181,23.02,110.445,26.04,26.96,17.13,0,111.2,13.13,26.88,119.0
"2010-08-11 01:33:00",60967,5.681,156.4,3.311,0.203,22.99,110.4447,26.04,26.94,17.17,0,111.2,13.13,26.88,118.4
"2010-08-11 01:33:30",60968,5.656,159.7,2.994,0.281,23.03,110.4447,26.04,26.93,17.32,0,111.2,13.13,26.88,121.7
"2010-08-11 01:34:00",60969,5.564,162.9,1.833,0.198,23.04,110.4447,26.04,26.93,17.43,0,111.2,13.13,26.88,124.9
"2010-08-11 01:34:30",60970,5.658,159.7,3.187,0.204,23.01,110.4447,26.04,26.93,17.31,0,111.2,13.12,26.88,121.7
"2010-08-11 01:35:00",60971,5.841,158.2,3.7,0.242,23.04,110.4447,26.04,26.94,17.4,0,111.2,13.13,26.88,120.2
"2010-08-11 01:35:30",60972,5.416,157.9,3.393,0.327,23.01,110.4447,26.04,26.93,17.36,0,111.2,13.13,26.88,119.9
"2010-08-11 01:36:00",60973,5.564,155.6,1.808,0.181,22.99,110.4397,26.02,26.92,17.25,0,111.2,13.13,26.87,117.6
"2010-08-11 01:36:30",60974,5.592,156.6,2.099,0.108,23.09,110.4318,26,26.91,17.34,0,111.2,13.11,26.85,118.6
"2010-08-11 01:37:00",60975,5.632,153.5,2.207,0.142,23.11,110.4265,25.99,26.91,17.38,0,111.2,13.11,26.83,115.5
"2010-08-11 01:37:30",60976,5.675,154.4,1.973,0.198,23.11,110.4195,25.97,26.91,17.45,0,111.2,13.11,26.82,116.4
"2010-08-11 01:38:00",60977,5.537,155.8,1.443,0.167,23.11,110.4189,25.97,26.9,17.49,0,111.2,13.11,26.81,117.8
"2010-08-11 01:38:30",60978,5.676,153.9,2.897,0.155,23.05,110.4133,25.96,26.89,17.54,0,111.2,13.11,26.80,115.9
"2010-08-11 01:39:00",60979,5.762,152.7,3.489,0.257,23,110.411,25.95,26.89,17.62,0,111.2,13.11,26.79,114.7
"2010-08-11 01:39:30",60980,6.495,144.3,0.776,0.256,23.01,110.411,25.95,26.86,16.77,0,111.2,13.11,26.79,106.3
"2010-08-11 01:40:00",60981,6.725,144.4,0.339,0.131,23.03,110.4108,25.95,26.86,16.56,0,111.2,13.11,26.79,106.4
"2010-08-11 01:40:30",60982,6.531,143.9,0.41,0.096,23.06,110.4105,25.95,26.86,16.58,0,111.2,13.11,26.79,105.9
"2010-08-11 01:41:00",60983,6.76,145.8,0.955,0.148,23.11,110.4094,25.95,26.85,16.54,0,111.2,13.11,26.79,107.8
"2010-08-11 01:41:30",60984,6.857,145.7,0.629,0.09,23.1,110.4069,25.94,26.84,16.39,0,111.2,13.12,26.78,107.7
"2010-08-11 01:42:00",60985,6.827,146.4,1.016,0.054,23.12,110.4012,25.93,26.85,16.36,0,111.2,13.12,26.77,108.4
"2010-08-11 01:42:30",60986,6.625,147.6,0.739,0.106,23.13,110.3914,25.9,26.85,16.33,0,111.2,13.13,26.74,109.6
"2010-08-11 01:43:00",60987,6.55,148.2,0.549,0.042,23.16,110.3883,25.89,26.85,16.37,0,111.2,13.13,26.73,110.2
"2010-08-11 01:43:30",60988,6.654,147.8,0.688,0.129,23.13,110.3875,25.89,26.85,16.45,0,111.2,13.13,26.73,109.8
"2010-08-11 01:44:00",60989,6.661,145.9,1.285,0.181,23.08,110.3882,25.89,26.84,16.63,0,111.2,13.13,26.73,107.9
"2010-08-11 01:44:30",60990,6.884,143.7,4.902,0.14,22.98,110.3826,25.88,26.84,16.91,0,111.2,13.13,26.72,105.7
"2010-08-11 01:45:00",60991,6.556,137.8,1.232,0.178,22.87,110.3836,25.88,26.83,17,0,111.2,13.13,26.72,99.8
"2010-08-11 01:45:30",60992,6.497,138.2,0.966,0.17,22.92,110.3869,25.89,26.8,16.91,0,111.2,13.13,26.73,100.2
"2010-08-11 01:46:00",60993,6.561,137.8,0.511,0.069,22.93,110.3639,25.83,26.8,16.87,0,111.2,13.13,26.67,99.8
"2010-08-11 01:46:30",60994,6.554,138.9,1.14,0.072,22.97,110.3528,25.8,26.77,16.83,0,111.2,13.13,26.64,100.9
"2010-08-11 01:47:00",60995,6.682,140.9,1.308,0.094,23.01,110.3567,25.81,26.75,16.87,0,111.2,13.13,26.65,102.9
"2010-08-11 01:47:30",60996,6.671,141.2,2.106,0.205,22.98,110.3601,25.82,26.75,16.85,0,111.2,13.13,26.66,103.2
"2010-08-11 01:48:00",60997,6.381,145.4,2.099,0.17,23.05,110.361,25.82,26.73,16.98,0,111.2,13.13,26.66,107.4
"2010-08-11 01:48:30",60998,6.35,146.7,2.437,0.122,23.01,110.3624,25.83,26.74,16.98,0,111.2,13.13,26.67,108.7